Location: Eckley Miners' Village
(40.9930°N, 75.8630°W)
Time: 01:45:28
(UTC-04:00)

Vanguard 1 Rocket - Pass Details

Date: 13 March 2026
Orbit: 654 x 4213 km, 34.3° (Epoch: 18 April)

Event Time Altitude Azimuth Distance (km) Brightness Sun altitude
Rises 13:44:12 0° 264° (W) 3,270 10.4 45.7°
Reaches altitude 10° 13:46:48 10° 247° (WSW) 2,574 10.2 45.6°
Maximum altitude 13:51:21 22° 198° (SSW) 2,312 11.0 45.4°
Drops below altitude 10° 13:57:59 10° 152° (SSE) 3,915 11.3 45.1°
Sets 14:03:15 0° 140° (SE) 5,585 11.7 44.8°
